FDB0445 VOMM-OMDB

Flight info

Callsign FDB0445
Flight time N/A
Altitude 32000
Route GULAM2B GULAM P574 OKILA/N0469F340 P574 PAROK Q899 ITURA M762 VAXAS/N0394F240 M762 MIVEK P574 IMPED IMPED3C
Aircraft B739/M-SDE2E3FGHIRWXY/LB1

Departure

Time 2026-04-29 11:46
Airport Chennai International Airport (VOMM)

Arrival

Time N/A
Airport Dubai International Airport (OMDB)
Time Latitude Longitude Altitude Speed Heading
2026-04-29 11:28 12.99704 80.16938 54 ft 0 kts 25°
2026-04-29 11:32 12.99691 80.16933 47 ft 2 kts 21°
2026-04-29 11:32 12.99677 80.16926 51 ft 2 kts 46°
2026-04-29 11:32 12.99668 80.16912 49 ft 2 kts 69°
2026-04-29 11:32 12.99664 80.16896 49 ft 2 kts 90°
2026-04-29 11:33 12.99666 80.16879 52 ft 2 kts 110°
2026-04-29 11:33 12.99669 80.16872 47 ft 0 kts 116°
2026-04-29 11:37 12.99668 80.16873 47 ft 1 kts 116°
2026-04-29 11:37 12.99657 80.16895 54 ft 6 kts 117°
2026-04-29 11:38 12.99633 80.16943 53 ft 9 kts 118°
2026-04-29 11:38 12.99599 80.17010 54 ft 12 kts 117°
2026-04-29 11:38 12.99556 80.17094 51 ft 14 kts 117°
2026-04-29 11:38 12.99512 80.17180 54 ft 10 kts 117°
2026-04-29 11:39 12.99453 80.17200 54 ft 9 kts 176°
2026-04-29 11:39 12.99388 80.17198 52 ft 9 kts 182°
2026-04-29 11:39 12.99325 80.17195 53 ft 9 kts 182°
2026-04-29 11:39 12.99263 80.17192 54 ft 9 kts 182°
2026-04-29 11:40 12.99201 80.17189 53 ft 9 kts 182°
2026-04-29 11:40 12.99141 80.17187 50 ft 9 kts 176°
2026-04-29 11:40 12.99084 80.17201 52 ft 8 kts 160°
2026-04-29 11:40 12.99024 80.17225 53 ft 11 kts 159°
2026-04-29 11:41 12.98983 80.17286 54 ft 13 kts 88°
2026-04-29 11:41 12.99015 80.17388 50 ft 17 kts 68°
2026-04-29 11:41 12.99063 80.17514 55 ft 21 kts 69°
2026-04-29 11:41 12.99120 80.17664 54 ft 21 kts 64°
2026-04-29 11:42 12.99166 80.17755 49 ft 14 kts 69°
2026-04-29 11:42 12.99199 80.17845 51 ft 13 kts 69°
2026-04-29 11:42 12.99231 80.17932 52 ft 13 kts 69°
2026-04-29 11:42 12.99265 80.18018 51 ft 13 kts 68°
2026-04-29 11:43 12.99302 80.18112 52 ft 15 kts 68°
2026-04-29 11:43 12.99341 80.18210 51 ft 15 kts 64°
2026-04-29 11:43 12.99386 80.18279 53 ft 12 kts 50°
2026-04-29 11:43 12.99433 80.18325 52 ft 0 kts 42°
2026-04-29 11:44 12.99433 80.18326 52 ft 0 kts 42°
2026-04-29 11:44 12.99448 80.18339 55 ft 6 kts 41°
2026-04-29 11:44 12.99498 80.18384 50 ft 13 kts 40°
2026-04-29 11:45 12.99561 80.18406 52 ft 8 kts 334°
2026-04-29 11:45 12.99557 80.18334 51 ft 21 kts 249°
2026-04-29 11:45 12.99416 80.17960 50 ft 90 kts 249°
2026-04-29 11:45 12.99116 80.17165 51 ft 148 kts 249°
2026-04-29 11:46 12.98690 80.16031 92 ft 189 kts 253°
2026-04-29 11:46 12.98330 80.14714 714 ft 190 kts 251°
2026-04-29 11:46 12.98053 80.13353 1254 ft 206 kts 269°
2026-04-29 11:46 12.98447 80.11886 1641 ft 224 kts 289°
2026-04-29 11:47 12.99055 80.10352 1848 ft 239 kts 288°
2026-04-29 11:47 12.99623 80.08727 2119 ft 252 kts 286°
2026-04-29 11:47 13.00183 80.06943 2269 ft 273 kts 285°
2026-04-29 11:47 13.00736 80.05042 2800 ft 277 kts 284°
2026-04-29 11:48 13.01247 80.03190 3722 ft 267 kts 284°
2026-04-29 11:48 13.01733 80.01350 4354 ft 269 kts 283°
2026-04-29 11:48 13.02209 79.99486 4937 ft 273 kts 284°
2026-04-29 11:48 13.02688 79.97576 5420 ft 279 kts 284°
2026-04-29 11:49 13.03169 79.95626 5825 ft 285 kts 284°
2026-04-29 11:49 13.03653 79.93646 6382 ft 287 kts 284°
2026-04-29 11:49 13.04142 79.91634 6880 ft 292 kts 284°
2026-04-29 11:49 13.04635 79.89595 7405 ft 295 kts 284°
2026-04-29 11:50 13.05132 79.87536 7891 ft 301 kts 284°
2026-04-29 11:50 13.05636 79.85436 8438 ft 302 kts 285°
2026-04-29 11:50 13.06136 79.83351 9101 ft 302 kts 285°
2026-04-29 11:50 13.06643 79.81241 9657 ft 306 kts 285°
2026-04-29 11:51 13.07156 79.79104 10028 ft 315 kts 285°
2026-04-29 11:51 13.07695 79.76857 10142 ft 333 kts 284°
2026-04-29 11:51 13.08254 79.74526 10286 ft 349 kts 284°
2026-04-29 11:51 13.08847 79.72049 10394 ft 365 kts 284°
2026-04-29 11:52 13.09461 79.69478 10604 ft 377 kts 284°
2026-04-29 11:52 13.10090 79.66848 10985 ft 381 kts 284°
2026-04-29 11:52 13.10720 79.64209 11531 ft 381 kts 284°
2026-04-29 11:52 13.11368 79.61562 11999 ft 384 kts 285°
2026-04-29 11:53 13.12054 79.58901 12462 ft 386 kts 285°
2026-04-29 11:53 13.12753 79.56235 12930 ft 388 kts 286°
2026-04-29 11:53 13.13459 79.53553 13422 ft 390 kts 285°
2026-04-29 11:53 13.14166 79.50859 13860 ft 392 kts 285°
2026-04-29 11:54 13.14873 79.48156 14308 ft 393 kts 286°
2026-04-29 11:54 13.15579 79.45445 14767 ft 393 kts 285°
2026-04-29 11:54 13.16283 79.42731 15208 ft 394 kts 285°
2026-04-29 11:54 13.16991 79.40004 15649 ft 395 kts 286°
2026-04-29 11:55 13.17698 79.37276 16087 ft 395 kts 286°
2026-04-29 11:55 13.18395 79.34584 16518 ft 396 kts 285°
2026-04-29 11:55 13.19103 79.31849 16949 ft 397 kts 285°
2026-04-29 11:55 13.19811 79.29109 17321 ft 399 kts 285°
2026-04-29 11:56 13.20524 79.26353 17693 ft 401 kts 285°
2026-04-29 11:56 13.21240 79.23582 18065 ft 402 kts 285°
2026-04-29 11:56 13.21959 79.20800 18386 ft 403 kts 285°
2026-04-29 11:56 13.22679 79.18014 18705 ft 405 kts 285°
2026-04-29 11:57 13.23403 79.15208 19008 ft 407 kts 285°
2026-04-29 11:57 13.24128 79.12398 19306 ft 408 kts 285°
2026-04-29 11:57 13.24855 79.09578 19591 ft 410 kts 285°
2026-04-29 11:57 13.25586 79.06742 19886 ft 411 kts 285°
2026-04-29 11:58 13.26317 79.03903 20172 ft 413 kts 285°
2026-04-29 11:58 13.27054 79.01039 20454 ft 414 kts 285°
2026-04-29 11:58 13.27793 78.98167 20716 ft 416 kts 284°
2026-04-29 11:58 13.28524 78.95327 20979 ft 418 kts 284°
2026-04-29 11:59 13.29379 78.92462 21234 ft 419 kts 291°
2026-04-29 11:59 13.30637 78.89758 21471 ft 422 kts 301°
2026-04-29 11:59 13.32236 78.87223 21725 ft 423 kts 303°
2026-04-29 11:59 13.33878 78.84705 21967 ft 425 kts 303°
2026-04-29 12:00 13.35535 78.82180 22194 ft 427 kts 303°
2026-04-29 12:00 13.37197 78.79640 22433 ft 428 kts 303°
2026-04-29 12:00 13.38834 78.77124 22675 ft 429 kts 303°
2026-04-29 12:00 13.40489 78.74566 22892 ft 431 kts 302°
2026-04-29 12:01 13.42145 78.71996 23143 ft 432 kts 302°
2026-04-29 12:01 13.43802 78.69417 23366 ft 433 kts 302°
2026-04-29 12:01 13.45464 78.66828 23566 ft 434 kts 302°
2026-04-29 12:01 13.47123 78.64239 23768 ft 434 kts 302°
2026-04-29 12:02 13.48791 78.61636 23975 ft 435 kts 302°
2026-04-29 12:02 13.50456 78.59036 24168 ft 436 kts 302°
2026-04-29 12:02 13.52104 78.56464 24349 ft 436 kts 302°
2026-04-29 12:02 13.53772 78.53859 24537 ft 437 kts 302°
2026-04-29 12:03 13.55445 78.51244 24724 ft 438 kts 302°
2026-04-29 12:03 13.57118 78.48630 24901 ft 438 kts 302°
2026-04-29 12:03 13.58799 78.46003 25066 ft 439 kts 302°
2026-04-29 12:03 13.64405 78.37232 25645 ft 440 kts 302°
2026-04-29 12:04 13.77913 78.16087 26879 ft 446 kts 302°
2026-04-29 12:04 13.91657 77.94490 27871 ft 452 kts 302°
2026-04-29 12:04 14.05219 77.73121 29311 ft 447 kts 302°
2026-04-29 12:04 14.18726 77.51847 30797 ft 443 kts 302°
2026-04-29 12:05 14.28789 77.35910 31828 ft 440 kts 301°
2026-04-29 12:05 14.30456 77.33257 31806 ft 442 kts 301°
2026-04-29 12:05 14.33797 77.27943 31822 ft 440 kts 301°
2026-04-29 12:06 14.42797 77.13641 31820 ft 437 kts 301°
2026-04-29 12:06 14.45975 77.08358 31811 ft 436 kts 298°
2026-04-29 12:07 14.52454 76.96514 31820 ft 435 kts 298°
2026-04-29 12:07 14.76617 76.53167 31805 ft 435 kts 298°
2026-04-29 12:08 15.22445 75.70071 31824 ft 438 kts 298°
2026-04-29 12:08 15.70659 74.81799 31911 ft 441 kts 298°
2026-04-29 12:09 16.18468 73.93270 31838 ft 443 kts 299°
2026-04-29 12:09 16.63483 73.08754 31776 ft 443 kts 299°
2026-04-29 12:10 16.67852 73.00513 32051 ft 447 kts 299°
2026-04-29 12:10 16.79870 72.77739 33375 ft 446 kts 300°
2026-04-29 12:10 16.91924 72.54856 33921 ft 442 kts 300°
2026-04-29 12:11 17.15776 72.09334 34049 ft 450 kts 300°
2026-04-29 12:11 17.39905 71.62934 33923 ft 456 kts 300°
2026-04-29 12:11 17.52312 71.39810 34636 ft 469 kts 298°
2026-04-29 12:11 17.53826 71.36793 34389 ft 464 kts 296°
2026-04-29 12:12 17.55701 71.32832 34164 ft 454 kts 296°
2026-04-29 12:12 17.56652 71.30835 34108 ft 452 kts 296°
2026-04-29 12:12 17.67664 71.08776 33840 ft 431 kts 298°
2026-04-29 12:12 17.79061 70.87074 33920 ft 420 kts 298°
2026-04-29 12:13 17.96330 70.53029 34368 ft 445 kts 297°
2026-04-29 12:13 18.12191 70.21863 34540 ft 469 kts 298°
2026-04-29 12:13 18.14634 70.17078 34275 ft 464 kts 298°
2026-04-29 12:13 18.15640 70.15107 34071 ft 458 kts 298°
2026-04-29 12:14 18.17122 70.12197 34014 ft 446 kts 298°
2026-04-29 12:14 18.34960 69.77006 32752 ft 390 kts 297°
2026-04-29 12:14 18.54882 69.37124 34378 ft 395 kts 297°
2026-04-29 12:14 18.75184 68.96439 35304 ft 438 kts 297°
2026-04-29 12:15 18.76612 68.93569 35082 ft 446 kts 297°
2026-04-29 12:15 18.78063 68.90645 34857 ft 453 kts 297°
2026-04-29 12:15 18.79531 68.87683 34617 ft 457 kts 297°
2026-04-29 12:15 18.81008 68.84703 34367 ft 456 kts 297°
2026-04-29 12:16 18.82471 68.81750 34189 ft 451 kts 297°
2026-04-29 12:16 18.83921 68.78823 34098 ft 448 kts 297°
2026-04-29 12:16 18.86798 68.73010 34005 ft 445 kts 297°
2026-04-29 12:17 18.89669 68.67205 34012 ft 448 kts 297°
2026-04-29 12:17 18.92550 68.61374 34012 ft 453 kts 297°
2026-04-29 12:18 19.14322 68.17187 34074 ft 465 kts 297°
2026-04-29 12:18 19.38163 67.68363 33912 ft 467 kts 297°
2026-04-29 12:18 19.61810 67.19545 33822 ft 461 kts 297°
2026-04-29 12:19 20.07334 66.24276 33907 ft 442 kts 296°
2026-04-29 12:19 20.29105 65.78165 34075 ft 440 kts 296°
2026-04-29 12:19 20.51360 65.30606 34172 ft 446 kts 296°
2026-04-29 12:20 20.95668 64.34710 34068 ft 459 kts 296°
2026-04-29 12:20 21.18114 63.85457 33931 ft 460 kts 295°
2026-04-29 12:20 21.40317 63.36200 33879 ft 456 kts 295°
2026-04-29 12:21 21.83578 62.38969 33973 ft 446 kts 295°
2026-04-29 12:21 22.23541 61.41210 34047 ft 444 kts 293°
2026-04-29 12:22 22.62312 60.45581 34033 ft 446 kts 292°
2026-04-29 12:22 22.64730 60.39380 34012 ft 447 kts 292°